Location: Slemon Park
(46.4340°N, 63.8219°W)
Time: 21:22:31
(UTC-03:00)

ISS - All Passes

Search period start: 22 March 2017 00:00
Search period end: 01 April 2017 00:00
Orbit: 399 x 409 km, 51.6° (Epoch: 23 March)

Date Brightness Start Highest point End Pass type
(mag) Time Alt. Az. Time Alt. Az. Time Alt. Az.
22 Mar - 01:04:57 10° W 01:08:10 52° NNW 01:11:25 10° ENE night (unlit)
22 Mar - 02:42:05 10° WNW 02:45:05 31° N 02:48:06 10° ENE night (unlit)
22 Mar - 04:18:43 10° WNW 04:21:59 55° NNE 04:25:15 10° E visible
22 Mar - 05:55:24 10° WNW 05:58:21 30° SW 06:01:16 10° SSE visible
22 Mar - 22:37:14 10° S 22:39:39 19° SE 22:42:04 10° E night (unlit)
23 Mar - 00:12:32 10° WSW 00:15:48 76° NNW 00:19:06 10° ENE night (unlit)
23 Mar - 01:49:35 10° WNW 01:52:37 32° N 01:55:39 10° ENE night (unlit)
23 Mar - 03:26:25 10° WNW 03:29:34 41° NNE 03:32:45 10° E night (unlit)
23 Mar - 05:02:54 10° WNW 05:06:08 51° SSW 05:09:21 10° SE visible
23 Mar - 21:46:36 10° SSE 21:47:34 11° SE 21:48:32 10° ESE night (unlit)
23 Mar - 23:20:15 10° SW 23:23:30 67° SSE 23:26:46 10° ENE night (unlit)
24 Mar - 00:57:03 10° W 01:00:08 37° NNW 01:03:15 10° ENE night (unlit)
24 Mar - 02:34:03 10° WNW 02:37:08 34° N 02:40:11 10° ENE night (unlit)
24 Mar - 04:10:32 10° WNW 04:13:51 85° SSW 04:17:09 10° ESE visible
24 Mar - 05:47:58 10° W 05:49:54 15° SW 05:51:49 10° S visible
24 Mar - 22:28:09 10° SW 22:31:14 39° SE 22:34:20 10° ENE night (unlit)
25 Mar - 00:04:30 10° W 00:07:41 46° NNW 00:10:54 10° ENE night (unlit)
25 Mar - 01:41:38 10° WNW 01:44:38 31° N 01:47:38 10° ENE night (unlit)
25 Mar - 03:18:12 10° WNW 03:21:29 63° NNE 03:24:46 10° ESE night (unlit)
25 Mar - 04:55:00 10° W 04:57:45 25° SW 05:00:31 10° SSE visible
25 Mar - 21:36:24 10° SSW 21:39:02 23° SE 21:41:41 10° E visible
25 Mar - 23:12:00 10° WSW 23:15:16 66° NNW 23:18:33 10° ENE night (unlit)
26 Mar - 00:49:07 10° WNW 00:52:07 32° N 00:55:07 10° ENE night (unlit)
26 Mar - 02:25:52 10° WNW 02:29:03 45° NNE 02:32:15 10° E night (unlit)
26 Mar - 04:02:24 10° WNW 04:05:33 42° SW 04:08:41 10° SE night (unlit)
26 Mar - 20:45:13 10° SSE 20:46:53 13° SE 20:48:34 10° ESE visible
26 Mar - 22:19:38 10° WSW 22:22:54 80° SSE 22:26:11 10° ENE visible
26 Mar - 23:56:33 10° WNW 23:59:36 35° N 00:02:40 10° ENE night (unlit)
27 Mar - 01:33:29 10° WNW 01:36:35 36° N 01:39:40 10° E night (unlit)
27 Mar - 03:09:57 10° WNW 03:13:15 72° SSW 03:16:32 10° SE night (unlit)
27 Mar - 04:47:51 10° WSW 04:49:12 12° SW 04:50:34 10° SSW night (unlit)
27 Mar - 21:27:26 10° SW 21:30:35 47° SE 21:33:44 10° ENE visible
27 Mar - 23:03:57 10° W 23:07:05 42° NNW 23:10:15 10° ENE visible
28 Mar - 00:41:02 10° WNW 00:44:03 32° N 00:47:04 10° ENE night (unlit)
28 Mar - 02:17:34 10° WNW 02:20:52 72° NNE 02:24:09 10° ESE night (unlit)
28 Mar - 03:54:31 10° W 03:57:04 21° SW 03:59:37 10° S night (unlit)
28 Mar - 20:35:29 10° SSW 20:38:19 27° SE 20:41:09 10° E visible
28 Mar - 22:11:24 10° WSW 22:14:37 58° NNW 22:17:52 10° ENE visible
28 Mar - 23:48:31 10° WNW 23:51:30 31° N 23:54:30 10° ENE night (unlit)
29 Mar - 01:25:12 10° WNW 01:28:25 50° NNE 01:31:38 10° E night (unlit)
29 Mar - 03:01:47 10° WNW 03:04:50 35° SW 03:07:52 10° SSE night (unlit)
29 Mar - 19:44:01 10° S 19:46:07 16° SE 19:48:13 10° E daylight
29 Mar - 21:18:56 10° WSW 21:22:11 87° NNW 21:25:29 10° ENE visible
29 Mar - 22:55:55 10° WNW 22:58:57 33° N 23:01:59 10° ENE visible
30 Mar - 00:32:47 10° WNW 00:35:55 38° NNE 00:39:02 10° E night (unlit)
30 Mar - 02:09:16 10° WNW 02:12:31 60° SSW 02:15:46 10° SE night (unlit)
30 Mar - 20:26:36 10° SW 20:29:48 57° SSE 20:33:02 10° ENE visible
30 Mar - 22:03:17 10° W 22:06:23 39° NNW 22:09:31 10° ENE visible
30 Mar - 23:40:20 10° WNW 23:43:22 33° N 23:46:23 10° ENE visible
31 Mar - 01:16:49 10° WNW 01:20:07 83° NNE 01:23:26 10° ESE night (unlit)
31 Mar - 02:53:59 10° W 02:56:14 17° SW 02:58:30 10° S night (unlit)
31 Mar - 19:34:32 10° SSW 19:37:29 33° SE 19:40:28 10° ENE daylight
31 Mar - 21:10:40 10° W 21:13:52 51° NNW 21:17:05 10° ENE visible
31 Mar - 22:47:47 10° WNW 22:50:46 31° N 22:53:45 10° ENE visible
